Weather in Sarakhs

Iran     36°32′38″N   61°09′41″E
В апреле 2022 года жителям России запретили посещать сайт meteo.paraplan.net по решению Генеральной прокуратуры. Аудитория сайта уменьшилась в 10 раз. Владельцы сайта не видят смысла в поддержке погодного сервера в таких условиях. Сайт будет закрыт в октябре.
temp.,
°C
wind,
m/s
gust,
m/s
humid.,
%
clouds,
%
prec.,
mm/h
press.,
hPa
HPBL,
m
5 october, wed
wed523:00+19ne22230 0.0 102015
02:00+17nw22250 0.0 102011
05:00+16nne22260 0.0 102011
08:00+18ne22220 0.0 102227
11:00+24nne23150 0.0 1022626
14:00+27n55120 0.0 10201378
17:00+27n6790 0.0 10201610
20:00+21n5690 0.0 102162
6 october, thu
thu623:00+17nne34100 0.0 102226
02:00+13nw22130 0.0 102211
05:00+11nw22170 0.0 102110
08:00+14nnw22160 0.0 102214
11:00+20n33120 0.0 1022732
14:00+24n4590 0.0 10191109
17:00+24n4580 0.0 10181161
20:00+19nnw33120 0.0 101915
7 october, fri
fri723:00+15n22190 0.0 102011
02:00+13wnw12220 0.0 101911
05:00+12w11230 0.0 101911
08:00+15wsw11190 0.0 102011
11:00+22nnw22120 0.0 1021788
14:00+26n4490 0.0 10191301
17:00+26n5590 0.0 10181427
20:00+20n44130 0.0 102017
8 october, sat
sat823:00+16n22170 0.0 102111
02:00+14wnw23180 0.0 102111
05:00+13wnw22190 0.0 102111
08:00+15wnw11160 0.0 102211
11:00+23nnw23100 0.0 1022652
14:00+27nne55100 0.0 10201656
17:00+27n55110 0.0 10191845
20:00+21n44190 0.0 102022
9 october, sun
sun923:00+16ene11180 0.0 102111
02:00+15w11210 0.0 102011
05:00+14w00270 0.0 102011
08:00+17wnw11250 0.0 102211
11:00+24n11150 0.0 1021674
14:00+27nne43100 0.0 10191615
17:00+27nne4490 0.0 10181527
20:00+21nne33140 0.0 102016